Location: Dunn (historical)
(35.2693°N, 90.5721°W)
Time: 02:41:27
(UTC+00:00)

Cosmos 2263 Rocket - Pass Details

Date: 13 February 2026
Orbit: 821 x 848 km, 71.0° (Epoch: 6 March)

Event Time Altitude Azimuth Distance (km) Brightness Sun altitude
Rises 12:03:08 0° 332° (NNW) 3,407 5.0 -10.3°
Reaches altitude 10° 12:05:39 10° 327° (NNW) 2,465 4.2 -9.8°
Maximum altitude 12:11:03 48° 254° (WSW) 1,091 2.4 -8.7°
Drops below altitude 10° 12:16:23 10° 182° (S) 2,434 4.7 -7.6°
Sets 12:18:53 0° 176° (S) 3,360 5.5 -7.1°
